IBE222 MGGT-MSLP

Flight info

Callsign IBE222
Flight time 0h 28m
Altitude 13000
Route KAPAN2A KAPAN G436 OLISU OLISU2M
Aircraft A359/H-SDE2E3GHIJ3J4J5LM1ORWXY/LB1D1

Departure

Time 2026-04-21 20:00
Airport La Aurora International Airport (MGGT)

Arrival

Time 2026-04-21 20:29
Airport El Salvador International Airport Saint Óscar Arnulfo Romero y Galdámez (MSLP)
Time Latitude Longitude Altitude Speed Heading
2026-04-21 19:47 14.58712 -90.52943 4936 ft 0 kts 274°
2026-04-21 19:52 14.58712 -90.52942 4936 ft 0 kts 274°
2026-04-21 19:53 14.58712 -90.52943 4942 ft 4 kts 309°
2026-04-21 19:53 14.58703 -90.52932 4942 ft 4 kts 340°
2026-04-21 19:53 14.58688 -90.52928 4940 ft 4 kts 288°
2026-04-21 19:53 14.58680 -90.52901 4939 ft 4 kts 285°
2026-04-21 19:54 14.58675 -90.52874 4939 ft 3 kts 271°
2026-04-21 19:54 14.58677 -90.52853 4939 ft 4 kts 223°
2026-04-21 19:54 14.58700 -90.52844 4939 ft 4 kts 189°
2026-04-21 19:54 14.58713 -90.52841 4941 ft 0 kts 197°
2026-04-21 19:56 14.58711 -90.52841 4941 ft 1 kts 193°
2026-04-21 19:57 14.58701 -90.52834 4939 ft 4 kts 146°
2026-04-21 19:57 14.58694 -90.52786 4941 ft 12 kts 88°
2026-04-21 19:57 14.58634 -90.52716 4937 ft 15 kts 183°
2026-04-21 19:57 14.58509 -90.52761 4933 ft 25 kts 197°
2026-04-21 19:58 14.58310 -90.52825 4936 ft 35 kts 197°
2026-04-21 19:58 14.58036 -90.52913 4929 ft 55 kts 197°
2026-04-21 19:58 14.57596 -90.53053 4900 ft 47 kts 197°
2026-04-21 19:58 14.57381 -90.53123 4895 ft 38 kts 198°
2026-04-21 19:59 14.57228 -90.53174 4892 ft 24 kts 198°
2026-04-21 19:59 14.57108 -90.53179 4892 ft 15 kts 127°
2026-04-21 19:59 14.57107 -90.53137 4893 ft 4 kts 56°
2026-04-21 19:59 14.57173 -90.53119 4891 ft 18 kts 15°
2026-04-21 20:00 14.57403 -90.53045 4891 ft 67 kts 18°
2026-04-21 20:00 14.58112 -90.52816 4926 ft 143 kts 18°
2026-04-21 20:00 14.59154 -90.52462 5547 ft 164 kts 18°
2026-04-21 20:00 14.60250 -90.52071 6437 ft 172 kts 20°
2026-04-21 20:01 14.61511 -90.51770 7038 ft 208 kts 359°
2026-04-21 20:01 14.63067 -90.52082 7511 ft 247 kts 354°
2026-04-21 20:01 14.64795 -90.51735 8133 ft 261 kts 30°
2026-04-21 20:01 14.66087 -90.50419 8582 ft 268 kts 62°
2026-04-21 20:02 14.66458 -90.49194 8841 ft 275 kts 83°
2026-04-21 20:02 14.66253 -90.46517 9451 ft 284 kts 100°
2026-04-21 20:02 14.65576 -90.44590 10021 ft 289 kts 120°
2026-04-21 20:02 14.64306 -90.42932 10378 ft 302 kts 132°
2026-04-21 20:03 14.62780 -90.41362 10627 ft 316 kts 135°
2026-04-21 20:03 14.61146 -90.39773 10852 ft 329 kts 136°
2026-04-21 20:03 14.59432 -90.38132 11083 ft 342 kts 136°
2026-04-21 20:03 14.57655 -90.36433 11266 ft 355 kts 136°
2026-04-21 20:04 14.55845 -90.34707 11512 ft 362 kts 136°
2026-04-21 20:04 14.53962 -90.32918 11939 ft 364 kts 136°
2026-04-21 20:04 14.52123 -90.31165 12373 ft 366 kts 136°
2026-04-21 20:04 14.50250 -90.29380 12820 ft 367 kts 137°
2026-04-21 20:05 14.48368 -90.27589 13286 ft 368 kts 137°
2026-04-21 20:05 14.46482 -90.25794 13754 ft 370 kts 137°
2026-04-21 20:05 14.44586 -90.23993 14173 ft 371 kts 137°
2026-04-21 20:05 14.42680 -90.22179 14535 ft 374 kts 137°
2026-04-21 20:06 14.40736 -90.20331 14909 ft 376 kts 137°
2026-04-21 20:06 14.38836 -90.18526 15278 ft 378 kts 137°
2026-04-21 20:06 14.36895 -90.16681 15628 ft 381 kts 137°
2026-04-21 20:06 14.34912 -90.14798 15969 ft 383 kts 137°
2026-04-21 20:07 14.32948 -90.12933 16308 ft 385 kts 137°
2026-04-21 20:07 14.30967 -90.11053 16614 ft 389 kts 137°
2026-04-21 20:07 14.29644 -90.09798 16777 ft 392 kts 137°
2026-04-21 20:07 14.26979 -90.07269 17241 ft 394 kts 137°
2026-04-21 20:08 14.24964 -90.05358 17665 ft 394 kts 136°
2026-04-21 20:08 14.22942 -90.03440 17979 ft 397 kts 137°
2026-04-21 20:08 14.20902 -90.01506 18268 ft 399 kts 136°
2026-04-21 20:08 14.18858 -89.99568 18627 ft 399 kts 136°
2026-04-21 20:09 14.16804 -89.97621 18812 ft 404 kts 136°
2026-04-21 20:09 14.14713 -89.95640 18922 ft 415 kts 136°
2026-04-21 20:09 14.12546 -89.93586 18934 ft 430 kts 136°
2026-04-21 20:09 14.10316 -89.91475 18932 ft 438 kts 136°
2026-04-21 20:10 14.08799 -89.90041 18928 ft 439 kts 136°
2026-04-21 20:10 14.06548 -89.87910 18898 ft 440 kts 136°
2026-04-21 20:10 14.04398 -89.85669 18900 ft 440 kts 131°
2026-04-21 20:10 14.02393 -89.83290 18898 ft 439 kts 129°
2026-04-21 20:11 14.00495 -89.80878 18900 ft 439 kts 127°
2026-04-21 20:11 13.98607 -89.78413 18899 ft 438 kts 127°
2026-04-21 20:11 13.96730 -89.75952 18898 ft 437 kts 127°
2026-04-21 20:11 13.94846 -89.73498 18819 ft 435 kts 127°
2026-04-21 20:12 13.92967 -89.71072 18188 ft 433 kts 128°
2026-04-21 20:12 13.91097 -89.68677 17557 ft 426 kts 128°
2026-04-21 20:12 13.89224 -89.66341 16927 ft 420 kts 130°
2026-04-21 20:12 13.87246 -89.64140 16266 ft 416 kts 133°
2026-04-21 20:13 13.85184 -89.62101 15734 ft 403 kts 136°
2026-04-21 20:13 13.83067 -89.60270 15172 ft 399 kts 141°
2026-04-21 20:13 13.80806 -89.58605 15089 ft 396 kts 146°
2026-04-21 20:13 13.78532 -89.57175 14747 ft 371 kts 149°
2026-04-21 20:14 13.76275 -89.56025 14051 ft 356 kts 155°
2026-04-21 20:14 13.73969 -89.55141 13072 ft 351 kts 161°
2026-04-21 20:14 13.71613 -89.54538 12094 ft 348 kts 168°
2026-04-21 20:14 13.69221 -89.54223 11137 ft 345 kts 175°
2026-04-21 20:15 13.66833 -89.54203 10208 ft 343 kts 181°
2026-04-21 20:15 13.64465 -89.54479 9223 ft 340 kts 189°
2026-04-21 20:15 13.62179 -89.55043 8203 ft 336 kts 196°
2026-04-21 20:15 13.59900 -89.55467 7255 ft 331 kts 181°
2026-04-21 20:16 13.57643 -89.55194 6326 ft 325 kts 161°
2026-04-21 20:16 13.55697 -89.54151 5596 ft 309 kts 139°
2026-04-21 20:16 13.54341 -89.52550 5230 ft 286 kts 118°
2026-04-21 20:16 13.53658 -89.50713 5133 ft 272 kts 99°
2026-04-21 20:17 13.53756 -89.48805 5119 ft 269 kts 76°
2026-04-21 20:17 13.54167 -89.47000 4778 ft 258 kts 75°
2026-04-21 20:17 13.54589 -89.45198 3983 ft 262 kts 76°
2026-04-21 20:17 13.54993 -89.43361 3248 ft 265 kts 78°
2026-04-21 20:18 13.55166 -89.41466 2814 ft 269 kts 92°
2026-04-21 20:18 13.55052 -89.39530 2989 ft 273 kts 95°
2026-04-21 20:18 13.54876 -89.37590 3433 ft 271 kts 95°
2026-04-21 20:18 13.54684 -89.35681 3606 ft 269 kts 96°
2026-04-21 20:19 13.54481 -89.33770 3640 ft 269 kts 96°
2026-04-21 20:19 13.54275 -89.31898 3641 ft 256 kts 96°
2026-04-21 20:19 13.54079 -89.30141 3640 ft 240 kts 96°
2026-04-21 20:19 13.53889 -89.28451 3648 ft 237 kts 96°
2026-04-21 20:20 13.53700 -89.26766 3649 ft 237 kts 96°
2026-04-21 20:20 13.53510 -89.25083 3655 ft 237 kts 96°
2026-04-21 20:20 13.53318 -89.23399 3659 ft 237 kts 96°
2026-04-21 20:20 13.53128 -89.21720 3652 ft 235 kts 95°
2026-04-21 20:21 13.52939 -89.20066 3643 ft 233 kts 95°
2026-04-21 20:21 13.52752 -89.18417 3655 ft 232 kts 96°
2026-04-21 20:21 13.52567 -89.16792 3408 ft 227 kts 96°
2026-04-21 20:21 13.52383 -89.15178 3038 ft 228 kts 97°
2026-04-21 20:22 13.52199 -89.13557 2720 ft 228 kts 96°
2026-04-21 20:22 13.51825 -89.10278 2636 ft 231 kts 97°
2026-04-21 20:22 13.51638 -89.08642 2633 ft 230 kts 97°
2026-04-21 20:23 13.51447 -89.07005 2637 ft 231 kts 97°
2026-04-21 20:23 13.51260 -89.05363 2515 ft 232 kts 97°
2026-04-21 20:23 13.51073 -89.03715 2505 ft 233 kts 96°
2026-04-21 20:23 13.50884 -89.02063 2500 ft 233 kts 97°
2026-04-21 20:24 13.50696 -89.00414 2506 ft 232 kts 97°
2026-04-21 20:24 13.50507 -88.98768 2502 ft 232 kts 97°
2026-04-21 20:24 13.50319 -88.97138 2503 ft 233 kts 97°
2026-04-21 20:24 13.50128 -88.95465 2512 ft 232 kts 97°
2026-04-21 20:25 13.49915 -88.93846 2501 ft 232 kts 101°
2026-04-21 20:25 13.49289 -88.92393 2478 ft 216 kts 129°
2026-04-21 20:25 13.48111 -88.91593 2466 ft 199 kts 168°
2026-04-21 20:25 13.46823 -88.91866 2472 ft 193 kts 214°
2026-04-21 20:26 13.46110 -88.93014 2375 ft 197 kts 259°
2026-04-21 20:26 13.46096 -88.94409 2168 ft 196 kts 269°
2026-04-21 20:26 13.46134 -88.95789 1856 ft 188 kts 268°
2026-04-21 20:26 13.46160 -88.97108 1556 ft 182 kts 268°
2026-04-21 20:27 13.46177 -88.98390 1249 ft 175 kts 267°
2026-04-21 20:27 13.46159 -88.99599 1027 ft 163 kts 260°
2026-04-21 20:27 13.45839 -89.00635 864 ft 147 kts 235°
2026-04-21 20:27 13.45462 -89.01572 665 ft 139 kts 256°
2026-04-21 20:28 13.45202 -89.02502 455 ft 132 kts 250°
2026-04-21 20:28 13.44878 -89.03364 278 ft 129 kts 244°
2026-04-21 20:28 13.44570 -89.04222 121 ft 128 kts 245°
2026-04-21 20:28 13.44325 -89.04894 105 ft 120 kts 255°
2026-04-21 20:29 13.44146 -89.05423 99 ft 58 kts 250°
2026-04-21 20:29 13.44035 -89.05727 100 ft 21 kts 250°
2026-04-21 20:29 13.44031 -89.05820 98 ft 4 kts 300°
2026-04-21 20:29 13.44034 -89.05824 97 ft 0 kts 302°